Lapse_Rate
5.7 5.8 5.7 5.6 5.8 5.8 5.8 5.8 5.9 6.0 6.0 6.0 6.2 6.3 6.3 6.4 6.5 6.5 6.5 6.4 6.5 6.8 6.9 6.7 6.7 6.7 6.8 6.8 6.8 6.6 7.1 7.4 7.1 7.1 6.7 7.1 7.0 7.1 7.2 7.3 7.5 7.7 7.7 7.7 7.6
5.7 5.8 5.8 5.8 5.7 5.7 5.8 5.9 5.8 5.8 5.9 6.0 5.9 6.1 6.2 6.3 6.3 6.4 6.5 6.6 6.6 6.6 6.8 6.7 6.7 6.7 6.7 6.8 6.9 6.6 7.1 7.4 6.9 6.8 6.7 6.7 6.8 7.0 7.0 7.2 7.3 7.4 7.4 7.5 7.5
5.8 5.8 5.8 5.8 5.7 5.7 5.7 5.8 5.9 5.9 5.8 5.9 6.0 6.0 6.2 6.1 6.1 6.1 6.2 6.3 6.4 6.5 6.6 6.6 6.5 6.5 6.7 6.8 6.9 6.9 7.1 6.8 7.1 6.9 6.8 6.4 6.6 6.9 6.7 6.8 7.0 7.1 7.2 7.4 7.5
5.7 5.8 5.8 5.8 5.7 5.7 5.7 5.7 5.8 5.7 5.8 5.8 5.9 6.0 6.1 6.1 5.8 6.0 5.9 6.1 6.3 6.3 6.3 6.3 6.2 6.2 6.4 6.5 6.9 6.6 6.8 6.7 6.6 7.0 6.8 6.4 6.4 6.9 6.9 6.8 6.9 7.1 7.4 7.4 7.3
5.8 5.7 5.7 5.8 5.8 5.6 5.7 5.7 5.8 5.6 5.8 5.9 5.9 6.1 6.1 6.1 6.0 6.2 6.1 6.2 6.2 6.2 6.2 6.2 6.2 6.1 6.2 6.5 6.7 6.6 6.8 6.6 6.5 6.6 6.5 6.6 6.7 6.7 6.7 6.9 7.1 7.1 7.1 7.1 7.0
5.8 5.7 5.6 5.6 5.7 5.6 5.6 5.7 5.7 5.7 5.9 6.0 5.9 6.1 6.2 6.3 6.2 6.2 6.3 6.3 6.2 6.1 6.2 6.2 6.2 6.2 6.2 6.3 6.4 6.7 6.7 6.6 6.6 6.4 6.3 6.4 6.6 6.6 6.7 6.8 6.7 6.8 6.8 6.8 6.6
5.9 5.7 5.5 5.6 5.6 5.7 5.4 5.5 5.6 5.6 5.9 5.9 6.0 6.3 6.4 6.4 6.4 6.4 6.4 6.3 6.2 6.1 6.2 6.2 6.2 6.2 6.3 6.1 6.4 6.6 6.5 6.5 6.8 6.5 6.1 6.2 6.3 6.3 6.7 6.5 6.5 6.5 6.6 6.6 6.5
5.6 5.6 5.7 5.5 5.4 5.5 5.5 5.4 5.7 5.6 5.6 5.7 5.8 6.1 6.6 6.3 6.4 6.4 6.4 6.4 6.4 6.2 6.2 6.4 6.3 6.3 6.2 6.2 6.3 6.4 6.5 6.8 6.5 6.6 6.0 6.1 7.0 6.5 6.4 6.4 6.4 6.4 6.4 6.3 6.3
5.3 5.4 5.6 5.6 5.5 5.6 5.6 5.4 5.3 5.7 5.6 5.6 5.8 5.9 6.3 6.3 6.2 6.3 6.4 6.3 6.2 6.3 6.2 6.3 6.2 6.2 6.3 6.1 6.1 6.1 7.0 6.8 6.4 6.4 5.8 6.0 6.7 6.5 6.5 6.3 6.2 6.1 6.1 6.1 6.1
5.4 5.4 5.4 5.5 5.6 5.5 5.6 5.4 5.5 5.5 5.7 5.8 6.0 5.8 6.4 6.2 5.9 6.0 6.2 6.2 6.1 6.3 6.3 6.0 6.1 6.0 5.8 6.0 7.0 7.1 6.6 6.6 6.7 6.0 6.2 5.8 5.8 6.3 6.3 6.2 6.1 6.1 6.0 5.8 5.9
5.7 5.8 5.9 5.8 5.9 5.8 5.3 5.5 5.3 5.6 5.8 5.9 5.6 5.8 6.1 6.2 6.1 6.0 6.1 6.1 6.3 5.9 6.1 6.3 5.8 6.0 6.1 5.9 6.3 6.2 6.4 6.7 6.5 5.8 6.0 5.9 5.7 6.0 6.1 6.1 6.3 6.1 6.2 6.0 6.0
5.5 5.7 5.8 6.0 6.1 6.0 5.9 5.5 5.5 5.4 5.4 5.9 5.7 6.0 6.1 6.1 6.1 6.4 6.0 6.2 6.2 6.1 6.0 6.0 6.2 6.0 5.7 5.8 6.0 5.9 6.3 6.6 6.2 6.1 6.1 5.7 5.4 5.9 6.1 6.1 6.1 6.2 6.3 6.4 6.4
5.6 5.7 5.9 6.1 6.0 5.9 6.0 6.1 5.7 5.2 5.0 5.6 6.2 6.3 6.3 5.9 6.6 7.0 6.3 6.3 6.1 5.7 6.0 5.9 6.2 6.4 6.0 6.1 6.1 5.9 6.2 6.5 6.6 5.9 6.0 5.7 5.7 6.0 6.1 6.0 6.3 6.4 6.4 6.4 6.4
5.2 5.6 5.9 6.1 6.0 6.0 6.0 6.0 6.1 5.8 4.5 4.7 5.9 5.8 6.6 6.4 6.1 7.7 6.7 6.5 5.8 6.1 5.7 5.3 5.8 6.2 6.3 5.9 5.9 6.3 6.0 6.0 6.2 6.2 7.0 6.0 7.6 5.7 6.1 6.3 6.6 6.6 6.6 6.6 6.5
4.9 5.1 5.5 5.7 5.7 6.2 6.1 6.1 6.4 6.4 5.6 5.4 4.6 5.4 6.4 6.6 6.2 7.4 7.2 6.3 5.7 5.6 5.8 5.9 6.2 6.3 5.9 6.7 6.2 6.6 6.4 6.2 6.2 6.3 6.2 6.5 6.5 7.5 5.5 6.5 7.0 6.9 6.8 6.6 6.3
5.5 5.6 5.4 5.6 5.8 6.2 6.4 6.7 6.8 6.4 4.7 5.5 5.0 5.7 6.0 6.5 6.2 6.9 6.9 6.2 6.0 5.7 5.4 6.0 5.9 6.0 5.9 6.0 6.5 6.3 6.4 6.4 6.2 6.3 6.5 6.9 6.8 7.4 5.9 6.8 6.9 7.1 7.0 6.7 6.5
5.9 5.8 5.7 5.6 6.0 6.2 6.3 6.9 6.6 6.3 5.2 5.7 5.3 5.9 6.3 6.1 6.3 6.4 6.6 6.3 6.1 5.6 5.7 5.8 5.6 5.8 6.1 6.3 6.3 6.3 6.4 7.5 7.4 7.3 7.6 6.7 6.8 7.2 6.3 6.7 6.9 7.1 7.0 6.8 6.6
5.9 6.0 6.2 6.3 6.2 6.3 6.1 5.9 6.6 5.2 5.1 5.6 5.3 5.6 5.6 6.1 6.6 6.5 6.2 5.9 5.8 6.2 7.0 6.6 6.6 5.8 6.1 6.5 6.7 6.5 7.0 8.1 7.9 8.5 8.6 5.6 6.4 6.9 6.5 6.8 6.9 6.9 7.1 7.1 7.1
5.9 5.2 5.5 6.2 6.0 5.8 5.7 6.1 6.0 5.8 5.4 6.2 6.0 5.6 6.2 6.1 6.3 6.7 6.3 6.2 6.2 6.0 6.7 7.1 7.4 6.8 6.5 6.4 6.6 6.4 6.3 7.3 7.6 6.8 7.1 7.5 6.7 6.4 6.3 6.7 6.8 6.9 7.1 7.0 7.1
5.6 5.8 5.6 5.4 5.5 5.8 6.0 5.7 5.5 5.4 5.9 6.3 6.9 6.6 6.6 6.9 6.5 6.5 6.8 6.7 6.7 6.6 6.9 6.9 7.1 7.0 6.7 6.7 6.5 6.6 6.8 6.6 6.7 7.2 7.4 7.8 7.8 7.6 6.6 7.1 7.2 7.3 7.1 7.0 6.9
5.9 5.8 6.0 6.1 6.4 6.2 6.0 5.0 4.8 5.0 5.9 6.3 6.4 6.5 6.2 7.0 6.5 6.8 7.1 6.7 7.3 7.4 7.3 7.1 7.0 6.8 6.8 6.6 7.0 6.4 6.6 6.6 7.3 7.4 8.3 8.4 8.4 6.9 6.9 7.1 7.3 7.2 7.2 6.8 6.7
6.3 6.2 6.2 6.4 6.4 6.4 6.3 5.4 5.2 5.3 5.9 5.9 6.2 6.3 6.2 6.7 6.8 6.6 6.4 7.3 7.3 7.3 7.4 7.4 6.8 6.9 6.7 6.1 6.8 6.6 6.6 6.9 7.2 7.0 6.8 7.3 7.3 7.4 6.9 7.4 7.3 7.2 6.9 6.8 6.7
6.6 6.6 6.4 6.6 6.7 6.4 6.6 6.5 6.4 5.6 6.2 6.7 6.7 6.3 6.2 6.4 6.4 6.4 6.7 6.8 6.6 7.0 7.3 7.3 6.8 6.9 6.7 6.0 5.7 6.2 6.2 6.8 6.9 6.9 7.0 7.5 7.1 7.2 7.3 7.4 7.4 7.2 7.0 6.8 6.7
7.2 6.7 7.0 6.7 6.9 6.9 6.8 6.5 6.5 7.0 6.3 7.0 6.8 6.7 6.7 6.8 6.8 6.6 6.7 7.0 6.6 7.0 7.2 7.3 7.4 7.3 7.4 8.1 7.4 6.1 6.7 6.4 6.3 6.3 6.9 7.2 7.1 7.4 7.2 7.3 7.5 7.4 7.1 7.0 6.7
7.4 7.3 7.0 7.3 7.3 6.8 7.2 7.1 6.7 6.6 6.7 6.8 7.2 7.3 7.3 7.1 6.9 7.1 7.0 7.0 6.9 6.9 6.6 6.6 6.5 6.8 6.7 6.8 7.2 6.0 6.5 6.4 6.0 6.5 6.8 6.5 6.3 6.8 7.5 7.4 7.7 7.2 7.1 7.0 7.0
7.4 7.5 7.4 7.7 7.4 7.4 7.6 7.7 7.6 7.1 6.9 7.0 7.1 7.3 7.4 7.5 7.3 7.2 7.2 7.0 7.1 6.8 6.6 6.5 6.2 6.2 6.4 6.9 6.3 6.2 6.0 6.1 6.5 6.3 6.8 6.9 7.0 7.8 7.6 7.6 7.6 7.4 7.1 7.2 7.0
7.6 7.9 7.5 7.6 7.7 7.5 7.4 7.1 7.6 7.6 7.5 7.3 7.2 7.2 7.1 7.2 7.4 7.2 7.1 7.2 7.1 6.8 6.6 6.1 5.9 6.4 6.3 6.4 6.2 5.9 5.7 6.2 6.6 6.7 6.8 6.8 7.1 7.6 7.5 7.6 7.4 7.2 7.2 7.0 7.0
Wind_Speed
6 6 5 5 7 8 10 13 16 18 19 22 25 28 27 27 25 3 5 6 6 15 7 7 5 2 3 2 0 3 5 7 8 10 9 9 7 6 3 11 7 6 8 10 9
8 7 6 5 8 9 9 11 14 17 20 24 28 32 33 30 9 2 5 4 8 12 5 8 4 4 2 2 2 5 6 4 4 4 9 7 5 9 7 12 10 13 13 11 10
8 8 7 6 7 9 11 12 13 16 20 22 25 29 32 21 8 2 5 3 7 9 5 5 7 5 3 2 2 2 4 4 7 5 4 8 9 3 7 6 8 13 14 12 12
9 8 8 7 8 9 11 12 13 15 16 20 22 27 34 5 7 4 6 3 7 7 3 5 5 5 4 4 3 6 3 2 5 2 3 6 10 6 4 6 12 15 14 12 12
10 10 9 8 8 10 11 12 12 14 15 16 20 27 11 6 6 4 5 3 3 3 2 2 5 4 7 2 4 6 5 4 4 2 4 5 4 7 10 11 13 14 12 12 12
14 13 11 10 9 10 11 10 11 11 12 14 16 22 6 11 3 3 7 2 3 2 1 2 2 2 3 3 6 1 4 6 6 7 7 8 9 5 8 12 13 13 12 11 11
9 12 15 13 11 11 12 10 10 11 11 12 11 7 8 11 2 5 7 3 1 3 1 2 3 5 0 4 1 2 8 9 12 11 7 8 9 3 17 15 14 13 11 10 10
7 9 12 14 13 13 13 10 10 12 11 9 10 6 7 1 7 9 7 7 5 3 3 3 2 2 4 1 4 7 5 11 7 11 8 12 12 13 16 16 15 13 12 11 10
6 8 9 11 12 12 13 11 12 11 10 10 5 4 8 1 6 1 3 3 5 4 1 1 3 3 4 9 9 10 11 9 8 7 5 16 5 14 15 15 15 13 12 11 10
8 8 8 10 9 11 10 7 7 9 5 4 3 6 7 3 1 1 3 4 4 6 4 5 5 8 7 10 12 11 12 9 11 7 9 10 4 13 14 15 15 13 12 11 10
7 8 7 8 7 5 2 0 4 7 6 9 3 4 3 3 4 6 4 8 7 7 9 6 8 11 14 15 14 9 10 11 4 4 6 9 10 14 16 15 15 14 13 11 10
10 6 6 6 4 1 2 3 2 4 9 12 16 18 16 7 10 10 6 9 9 12 9 6 14 13 7 8 11 12 12 11 4 3 6 6 9 14 16 16 17 16 15 14 13
7 9 7 1 5 5 2 3 1 3 5 9 17 17 21 13 23 24 15 11 14 14 15 16 2 2 13 11 13 14 13 9 10 4 3 6 11 16 17 15 17 16 15 15 14
4 12 8 8 5 3 3 4 2 3 8 14 7 7 12 10 10 19 23 16 13 18 15 13 14 7 12 15 13 12 10 12 11 8 11 7 5 16 17 19 19 18 17 16 15
8 6 15 8 4 3 2 9 4 2 9 4 7 3 6 13 5 2 14 20 21 12 10 10 11 18 14 12 14 3 2 8 8 10 9 12 8 4 16 16 22 21 20 18 17
7 5 11 3 1 1 3 6 3 4 11 4 6 9 8 14 5 2 9 11 10 17 14 16 2 9 14 9 14 9 8 5 3 5 11 18 13 12 11 18 17 20 20 20 18
9 6 9 4 2 6 9 2 5 11 2 7 7 8 12 10 11 9 12 20 13 12 17 16 15 5 8 9 9 15 11 5 7 7 10 2 10 15 6 5 8 20 21 21 19
10 6 7 4 2 7 5 4 8 14 28 10 1 7 9 9 8 10 10 16 22 17 7 14 10 20 16 14 9 22 19 8 11 13 11 5 9 3 3 6 6 11 18 19 19
5 3 4 5 4 4 4 12 13 18 11 22 11 6 13 10 6 11 15 12 12 18 11 9 10 2 4 10 12 9 15 17 11 3 5 10 11 6 7 7 10 12 18 20 19
2 3 9 9 17 4 6 13 19 27 27 11 16 15 14 13 10 9 12 6 13 18 18 4 6 4 6 6 10 12 8 7 10 9 16 12 12 11 12 14 13 15 18 19 19
3 3 2 18 7 5 9 11 22 22 19 26 21 11 13 21 12 9 6 4 9 9 19 10 5 4 5 12 16 10 13 8 9 15 13 15 12 5 4 14 17 17 17 20 20
3 3 3 11 9 3 12 20 9 17 24 19 12 20 18 17 15 10 9 7 3 4 8 10 2 9 15 2 5 14 18 20 8 12 6 6 17 6 6 10 13 14 17 18 19
2 2 4 3 8 11 19 24 17 24 21 19 15 22 20 18 16 20 21 11 8 7 3 8 7 10 7 9 4 7 15 16 16 2 17 11 11 4 7 8 12 14 17 18 18
2 3 3 4 3 19 24 24 25 26 18 11 20 19 21 21 20 10 15 2 3 5 7 6 8 12 17 12 2 7 15 13 17 12 18 17 21 14 11 12 13 15 17 18 18
3 5 9 4 11 8 22 17 27 28 24 12 6 17 15 21 24 25 24 16 4 6 6 2 7 12 18 20 19 12 14 19 23 27 13 21 24 30 19 16 15 15 16 19 19
4 4 2 14 17 10 12 13 22 24 27 25 20 16 19 15 10 3 11 3 2 4 3 2 4 10 19 26 24 22 22 27 24 24 23 23 27 19 5 6 13 14 17 19 19
3 2 7 11 15 17 16 21 21 21 22 24 25 18 20 20 19 17 12 9 7 6 7 10 5 4 7 17 16 14 31 26 28 27 21 19 26 15 9 11 12 13 16 19 19
Wind_Direction
275 286 296 317 324 333 341 344 349 351 351 346 347 342 343 345 323 218 47 359 321 320 319 288 265 319 224 129 47 280 228 192 172 186 141 141 139 84 76 94 64 50 74 97 105
252 267 284 301 311 319 328 338 346 351 354 354 350 341 337 342 317 51 13 327 319 335 336 339 341 306 179 132 144 259 254 167 113 132 146 130 143 125 143 119 97 100 102 109 111
257 267 274 286 299 310 319 331 343 352 355 354 347 336 327 329 277 89 11 324 322 324 323 318 297 285 228 200 159 161 294 145 152 127 196 146 129 94 168 121 140 145 131 122 112
262 266 275 285 294 301 314 325 337 344 354 349 344 333 322 299 317 84 344 314 312 301 293 298 275 257 243 212 163 219 165 181 137 110 194 201 128 104 38 90 109 128 129 126 112
254 262 271 278 290 300 307 317 330 334 345 347 341 333 325 302 283 35 337 309 291 317 2 295 272 273 259 219 201 234 183 201 178 216 196 138 154 120 111 117 119 120 119 110 98
258 261 265 270 272 284 293 304 315 322 331 338 339 329 298 285 60 335 340 306 3 330 47 289 297 294 278 265 261 106 224 224 228 215 175 175 144 166 136 135 130 128 119 107 103
287 280 278 271 272 272 278 289 300 304 319 328 333 322 277 275 348 310 302 331 2 3 300 58 328 255 198 228 172 206 253 215 221 215 194 155 179 176 151 156 143 136 126 118 111
329 314 301 286 270 263 271 281 287 293 305 311 317 284 270 248 304 279 278 261 217 262 286 347 298 271 264 353 218 237 234 237 148 202 174 201 229 153 164 162 159 151 143 130 108
334 324 316 302 294 280 265 268 277 291 293 292 257 288 272 282 257 79 207 263 188 198 223 297 242 280 207 230 234 213 254 219 168 212 174 202 203 158 174 180 168 167 157 142 129
313 300 309 307 305 297 278 247 285 290 225 234 250 261 237 219 127 213 147 179 209 167 176 215 222 237 224 227 233 233 229 222 247 156 217 209 199 163 182 189 182 175 165 160 151
276 287 299 306 311 309 173 224 271 222 214 237 337 272 255 316 244 223 182 175 162 214 222 205 232 222 229 231 268 271 250 249 224 131 235 222 205 180 180 195 191 187 180 173 160
258 252 285 283 317 173 142 262 135 335 291 240 255 260 266 273 269 224 185 203 204 224 215 214 240 244 243 229 228 230 237 235 224 187 255 203 201 182 188 199 195 195 190 181 165
260 229 238 143 102 133 190 219 321 321 268 256 236 245 245 208 244 248 195 223 224 232 215 236 252 297 211 209 214 225 232 229 259 170 226 209 218 197 200 206 205 205 198 189 184
298 235 233 148 159 153 212 187 201 234 277 260 223 236 209 218 258 249 222 216 211 231 220 240 231 202 201 221 213 228 228 242 245 240 247 216 275 191 187 202 206 202 200 193 185
288 312 191 188 112 202 66 164 181 257 279 63 156 89 163 192 344 136 206 209 227 209 190 210 205 208 211 215 199 233 204 211 228 243 285 221 259 195 184 208 210 206 200 197 188
282 290 182 119 207 13 117 142 169 212 242 218 159 188 174 208 232 105 179 221 241 228 230 259 296 215 224 217 200 142 142 142 199 257 248 242 228 261 183 217 209 203 199 197 189
272 216 204 164 213 163 155 93 172 217 125 210 203 195 212 201 212 207 188 194 188 197 222 221 221 189 174 173 188 196 183 203 223 216 249 77 220 254 154 172 210 197 195 193 187
271 227 218 214 143 166 187 198 201 234 228 105 328 207 210 196 226 204 204 209 219 225 268 210 209 207 186 215 197 205 204 212 239 247 253 161 231 242 126 179 178 188 191 187 185
271 253 236 196 155 199 236 217 212 233 234 245 228 266 221 224 244 206 223 227 216 209 213 207 229 226 205 200 194 184 227 240 268 249 266 243 231 197 174 182 188 183 181 186 186
217 228 236 186 191 188 234 229 221 233 248 242 248 222 231 225 209 207 198 211 224 213 222 220 256 181 160 198 222 233 185 195 217 239 239 253 254 260 194 204 185 183 188 185 189
178 224 269 182 178 210 219 230 238 242 240 249 250 242 261 240 227 240 252 166 215 203 205 219 232 138 166 210 208 199 214 229 255 232 251 256 250 69 236 187 190 193 190 188 188
209 215 309 178 198 208 216 218 240 261 233 244 256 258 238 229 236 228 256 252 18 171 191 215 226 241 228 202 295 261 232 213 216 206 237 266 257 132 144 178 191 189 191 189 188
209 233 190 11 213 216 228 229 235 247 257 242 231 240 246 248 255 250 246 265 322 254 250 160 202 237 241 224 195 237 227 240 228 258 225 226 250 159 160 183 192 192 187 188 186
143 227 208 202 266 236 216 222 231 232 242 270 258 253 242 242 243 255 248 209 36 15 5 223 203 217 243 261 10 226 222 228 236 229 242 240 264 244 210 209 198 198 190 188 185
182 226 241 216 232 242 223 216 226 234 223 226 236 240 232 240 242 244 246 235 190 29 334 45 247 240 257 264 263 240 258 223 217 230 217 243 243 253 251 223 209 199 193 186 184
193 199 208 252 246 211 245 201 230 233 233 228 228 252 231 232 224 206 251 176 223 52 68 335 229 230 240 249 250 251 253 239 244 244 237 247 256 260 259 204 212 202 191 189 182
148 305 255 246 234 239 225 224 223 239 250 241 238 251 252 247 249 259 236 216 201 207 197 173 176 214 243 242 251 254 235 245 247 244 239 234 241 252 198 208 208 194 192 186 178